Location: Borek Strzeliński
(50.8665°N, 17.0667°E)
Time: 23:23:33
(UTC+01:00)

ISS - Visible Passes

Search period start: 23 January 2019 00:00
Search period end: 02 February 2019 00:00
Orbit: 404 x 410 km, 51.6° (Epoch: 24 January)

Date Brightness Start Highest point End Pass type
(mag) Time Alt. Az. Time Alt. Az. Time Alt. Az.
23 Jan -1.7 18:39:40 10° SSW 18:41:05 18° S 18:41:05 18° S visible
24 Jan -1.8 17:49:12 10° S 17:51:13 15° SE 17:52:04 14° ESE visible
24 Jan -1.0 19:24:00 10° WSW 19:24:47 16° SW 19:24:47 16° SW visible
25 Jan -3.0 18:32:49 10° SW 18:35:41 40° SSE 18:35:41 40° SSE visible
26 Jan -2.5 17:41:49 10° SSW 17:44:42 28° SSE 17:46:30 17° E visible
26 Jan -1.6 19:17:40 10° WSW 19:19:14 25° WSW 19:19:14 25° WSW visible
27 Jan -3.8 18:26:19 10° WSW 18:29:36 67° SSE 18:30:00 59° ESE visible
28 Jan -3.3 17:35:04 10° SW 17:38:15 48° SSE 17:40:43 16° E visible
28 Jan -2.1 19:11:26 10° W 19:13:26 34° W 19:13:26 34° W visible
29 Jan -3.9 18:19:58 10° W 18:23:18 87° N 18:24:07 48° ENE visible
29 Jan -0.3 19:56:36 10° W 19:56:50 12° W 19:56:50 12° W visible
30 Jan -3.7 17:28:33 10° WSW 17:31:51 76° SSE 17:34:47 13° ENE visible
30 Jan -2.6 19:05:08 10° W 19:07:30 43° WNW 19:07:30 43° WNW visible
31 Jan -3.8 18:13:40 10° W 18:16:59 76° N 18:18:09 37° ENE visible
31 Jan -0.6 19:50:15 10° WNW 19:50:52 15° W 19:50:52 15° W visible
01 Feb -3.8 17:22:10 10° W 17:25:29 82° N 17:28:48 10° E visible
01 Feb -3.2 18:58:47 10° WNW 19:01:31 58° WNW 19:01:31 58° WNW visible
